INTELSAT 33E DEB, 61997

Orbit data source: Space-Track

INTELSAT 33E DEB, 61997 is space debris in GEO originally from a launch on Wed, 24 Aug 2016 UTC launched from the French Guiana (FRGUI). Debris objects in space refer to the collection of defunct objects orbiting the Earth. Examples of debris include non-operational satellites, rocket bodies, and fragments generated from explosions, collisions, or faulty payload assembly.

Loading next visibility...
Identifier
61997, 2016-053P
Orbit
GEO
Last TLE update
1 day ago
Origin
Manufacturer
Boeing/ES
Mission
Spacecraft
Bus & Motor
Unknown
Mass
Unknown
Launch date (UTC)
2016-08-24 (9 years ago)
Launch vehicle
Unknown
Launch site
French Guiana (FRGUI)
Object type
Payload
Rocket body
Debris
Shape & HBR
Unknown
Radar Cross Section
RCS unknown

Expand to show TLE details & history

TLE from 1 day ago
0 INTELSAT 33E DEB
1 61997U 16053P   25186.56906685 -.00000099  00000-0  00000-0 0  9993
2 61997   0.6856  93.2314 0091886 258.1347   8.4715  1.01613925  2648
Epoch: 2025-07-05T13:39Z
TLE epoch observation values (Epoch: 2025-07-05T13:39:27.375Z)
Latitude
-0.68993°
Longitude
-128.6695°
Altitude
35,035.865 km
Speed
3.116 km/s
True Right ascension
23h 59m 59s
True Declination
0° 41' 21"
Sunlit
Object was in daylight at epoch
Visualization orbit readout
Latitude
0.49573°
Longitude
8.167°
Altitude
35,728.307 km
Speed
3.065 km/s
Apparent Right ascension
08h 58m 47s
Apparent Declination
-5° 39' 18"
Sunlit
Object is in daylight
Visualization observer readout
Local Sidereal Time
10:13:34
Azimuth
205.118° SW
Elevation
41.281°
Doppler factor
1
Orbital elements
Apogee altitude
35,799.597 km
Perigee altitude
35,031.546 km
Semi-major axis
41,793.708 km
Eccentricity
0.00919
Inclination
0.6856°
RAAN
93.2314°
Arg. of periapsis
258.1347°
True anomaly
Unknown
Mean anomaly
8.4715°
Eccentric anomaly
Unknown
Mean motion
0.25403 °/min
Orbital period
1,417.18 mins
BSTAR
0
Loading historical data...
61997 neighbors
Loading maneuver chart data...
Loading SW <> Apogee altitude chart data...
Loading historical data...
Loading historical data...
Loading historical data...
Loading historical data...
Loading historical data...
Loading historical data...
Loading historical data...

INTELSAT 33E DEB Visibility forecast

Observer location: undefined°, undefined°

Span
Click to sort rows by Start time (UTC) header in descending order
Start Az.
Max El. time (UTC)
Max El. Az.
Max El.
End time (UTC)
End Az.
1440 mins2025-07-06 22:13:28.979Z205.109° SW2025-07-07 22:13:28.979Z198.26° SSW34.205°2025-07-07 22:13:28.979Z198.26° SSW
|